Regional Weather Roundup
Issued by NWS

Home | Current Version | Previous Version | Graphics & Text | Print | Product List | Glossary On
Versions: 1 2 3 4 5 6 7 8 9 10 11 12 13 14 15 16 17 18 19 20 21 22 23 24 25 26 27 28 29 30 31 32 33 34 35 36 37 38 39 40 41 42 43 44 45 46 47 48 49 50
000
ASUS43 KLSX 031707
RWRMO

WEATHER SUMMARY FOR MISSOURI
NATIONAL WEATHER SERVICE SPRINGFIELD MO
1200 PM CDT THU SEP 03 2015

NOTE: "FAIR" INDICATES FEW OR NO CLOUDS BELOW 12,000 FEET WITH NO
       SIGNIFICANT WEATHER AND/OR OBSTRUCTIONS TO VISIBILITY.
       CURRENT SKY AND/OR WEATHER CONDITIONS ARE NOT AVAILABLE FOR
       CHILLICOTHE AND FARMINGTON.

MOZ001>031-035>038-043-044-053-054-031800-
...NORTHERN AND WESTERN MISSOURI...

CITY           SKY/WX    TMP DP  RH WIND       PRES   REMARKS
KANSAS CTY INT PTSUNNY   88  68  51 SW17      29.95F HX  91
KANSAS C DTWN  SUNNY     89  69  51 S12       29.94F HX  93
LEE`S SUMMIT   SUNNY     86  67  52 SW14      29.98F
ST JOSEPH      MOSUNNY   85  70  60 S14       29.93S
CHILLICOTHE      N/A     89  70  53 S9        29.97S HX  94
KIRKSVILLE     MOSUNNY   88  67  49 SW12      29.98F HX  91

$$
MOZ066>068-077>081-088>096-101>105-031800-
...SOUTHWEST MISSOURI...

CITY           SKY/WX    TMP DP  RH WIND       PRES   REMARKS
SPRINGFIELD    SUNNY     87  68  52 S9        30.03F HX  90
JOPLIN         SUNNY     85  70  60 S9        30.02F

$$
MOZ032>034-039>042-045>050-055>058-069>072-031800-
...CENTRAL MISSOURI...

CITY           SKY/WX    TMP DP  RH WIND       PRES   REMARKS
COLUMBIA       SUNNY     85  72  65 S5        30.02S HX  91
JEFFERSON CITY MOSUNNY   85  69  58 VRB5      30.00F
ROLLA          MOSUNNY   90  67  46 SW9       30.02F HX  93
SEDALIA        SUNNY     90  67  46 SW9       30.01F HX  93
WHITEMAN AFB   MOSUNNY   88  68  50 W10       29.98F HX  91
WARRENSBURG    SUNNY     86  64  48 S10       29.98F
OSAGE BEACH    SUNNY     86  66  51 W6        30.03S

$$
MOZ051-052-059>065-031800-
...EAST CENTRAL MISSOURI...

CITY           SKY/WX    TMP DP  RH WIND       PRES   REMARKS
ST LOUIS INTL  MOSUNNY   91  67  44 W8        30.01F HX  94
SPIRIT OF STL  MOSUNNY   87  71  58 S7        29.99F HX  93
ST CHARLES     SUNNY     89  69  51 SW9       29.99F HX  93

$$
MOZ072>076-082>087-097>100-106>115-031800-
...SOUTH CENTRAL AND SOUTHEAST MISSOURI...

CITY           SKY/WX    TMP DP  RH WIND       PRES   REMARKS
CAPE GIRARDEAU SUNNY     88  68  51 SW5       30.01F HX  91
FARMINGTON     SUNNY     86  72  62 SW5       30.06F HX  92
POPLAR BLUFF   SUNNY     87  71  58 SE3       30.00F HX  93
WEST PLAINS    SUNNY     85  66  53 S6        30.06F

$$


USA.gov is the U.S. government's official web portal to all federal, state and local government web resources and services.